Find OneWeb SL0570

NORAD ID: 55149 Int'l Des: 2023-004 Owner: ONEWEBN Country: UK Constellation: oneweb operational
LEOCIRCULARPOLARONEWEB_TYPE

リアルタイム位置

3D地球を読み込み中...

OneWeb SL0570について

説明を読み込み中...

次回通過

Passes for default location (London). Set your location on the main map for personalized predictions.

高度履歴

Loading altitude history...

軌道要素

1 55149U 23004K 26127.15516772 .00000102 00000-0 22674-3 0 9992
2 55149 87.9180 343.6354 0001648 96.4046 263.7273 13.18686493164285
Epoch: May 7, 2026 • Age: 6 hours

現在のステータス

高度 1197.7 km
速度 7.26 km/s
衛星直下点 53.84°N, 20.7°W
打ち上げ日 Jan 10, 2023
運用期間 3.3 years
タイプ internet

技術仕様

分類 Payload
質量 148.00 kg
乾燥質量 140.00 kg
総質量 148.00 kg
長さ 1.30 m
直径 1.00 m
スパン 5.00 m
形状 Trapezoid+2 pan
製造者 ONEWUS
バスタイプ ARROW
フェーズステータス In Orbit
所有者/国 ONEWEBN/UK

Most Searched